Location: Ferchesar
(52.6477°N, 12.4298°E)
Time: 04:12:04
(UTC+01:00)

Vanguard 1 - Pass Details

Date: 13 December 2021
Orbit: 652 x 3830 km, 34.2° (Epoch: 21 January)

Event Time Altitude Azimuth Distance (km) Brightness Sun altitude
Rises 23:53:51 0° 248° (WSW) 6,754 14.3 -60.4°
Enters shadow 23:54:58 - 247° (WSW) 6,570 14.2 -60.4°
Exits shadow 00:35:20 15° 119° (ESE) 6,179 13.9 -59.9°
Drops below altitude 10° 00:37:38 10° 116° (ESE) 6,511 14.1 -59.8°
Sets 00:42:26 0° 111° (ESE) 7,254 14.5 -59.6°
